• In Russia
  • List of Countries
  • For 7 days
  • Water Temperature
  • Satellite Maps
  • Weather Map
  • Weather Widgets
  • user-avatar
    Login

    Hourly Weather Bregenz

    Today, 27 March, Monday

    Time Temperature Precipitation Wind Pressure Humidity
    00:00 -2°C° 0 mm 2 mps 647 mmHg 92%
    01:00 -2°C° 0 mm 2 mps 647 mmHg 91%
    02:00 -2°C° 0 mm 2 mps 647 mmHg 91%
    03:00 -3°C° 0 mm 2 mps 647 mmHg 91%
    04:00 -3°C° 0 mm 2 mps 647 mmHg 91%
    05:00 -2°C° 0 mm 2 mps 647 mmHg 91%
    06:00 -2°C° 0 mm 2 mps 647 mmHg 90%
    07:00 0°C° 0 mm 1 mps 647 mmHg 90%
    08:00 +3°C° 0 mm 1 mps 648 mmHg 84%
    09:00 +5°C° 0 mm 1 mps 648 mmHg 78%
    10:00 +8°C° 0 mm 1 mps 649 mmHg 72%
    11:00 +9°C° 0 mm 1 mps 649 mmHg 70%
    12:00 +10°C° 0 mm 1 mps 649 mmHg 67%
    13:00 +11°C° 0 mm 1 mps 649 mmHg 65%
    14:00 +11°C° 0 mm 1 mps 649 mmHg 66%
    15:00 +11°C° 0 mm 1 mps 649 mmHg 67%
    16:00 +11°C° 0 mm 1 mps 649 mmHg 68%
    17:00 +8°C° 0 mm 1 mps 648 mmHg 77%
    18:00 +5°C° 0 mm 1 mps 648 mmHg 85%
    19:00 +2°C° 0 mm 1 mps 647 mmHg 93%
    20:00 +2°C° 0 mm 1 mps 647 mmHg 93%
    21:00 +1°C° 0 mm 1 mps 647 mmHg 93%
    22:00 +1°C° 0 mm 1 mps 648 mmHg 93%
    23:00 +1°C° 0 mm 1 mps 648 mmHg 93%

    Tomorrow, 28 March, Tuesday

    Time Temperature Precipitation Wind Pressure Humidity
    00:00 +1°C° 0 mm 1 mps 648 mmHg 93%
    01:00 +1°C° 0 mm 1 mps 648 mmHg 93%
    02:00 0°C° 0 mm 1 mps 648 mmHg 93%
    03:00 0°C° 0 mm 1 mps 648 mmHg 93%
    04:00 0°C° 0 mm 1 mps 647 mmHg 93%
    05:00 0°C° 0 mm 1 mps 648 mmHg 92%
    06:00 +1°C° 0 mm 1 mps 648 mmHg 92%
    07:00 +2°C° 0 mm 1 mps 649 mmHg 92%
    08:00 +4°C° 0 mm 1 mps 649 mmHg 83%
    09:00 +7°C° 0 mm 1 mps 650 mmHg 74%
    10:00 +9°C° 0 mm 0 mps 651 mmHg 66%
    11:00 +11°C° 0 mm 1 mps 651 mmHg 64%
    12:00 +11°C° 0 mm 1 mps 652 mmHg 62%
    13:00 +12°C° 0 mm 1 mps 652 mmHg 60%
    14:00 +12°C° 0 mm 1 mps 652 mmHg 62%
    15:00 +12°C° 0 mm 1 mps 651 mmHg 64%
    16:00 +11°C° 0 mm 1 mps 651 mmHg 66%
    17:00 +9°C° 0 mm 1 mps 651 mmHg 75%
    18:00 +6°C° 0 mm 1 mps 650 mmHg 84%
    19:00 +2°C° 0 mm 0 mps 649 mmHg 92%
    20:00 +2°C° 0 mm 0 mps 650 mmHg 93%
    21:00 +1°C° 0 mm 0 mps 650 mmHg 94%
    22:00 0°C° 0 mm 0 mps 650 mmHg 94%
    23:00 0°C° 0 mm 0 mps 650 mmHg 94%

    Day after tomorrow, 29 March, Wednesday

    Time Temperature Precipitation Wind Pressure Humidity
    00:00 0°C° 0 mm 0 mps 650 mmHg 94%
    01:00 +1°C° 0 mm 1 mps 650 mmHg 94%
    02:00 +1°C° 0 mm 1 mps 650 mmHg 94%
    03:00 +1°C° 0 mm 1 mps 650 mmHg 94%
    04:00 +1°C° 0 mm 1 mps 651 mmHg 94%
    05:00 +1°C° 0 mm 0 mps 651 mmHg 94%
    06:00 +1°C° 0 mm 0 mps 651 mmHg 93%
    07:00 +2°C° 0 mm 0 mps 651 mmHg 93%
    08:00 +4°C° 0 mm 0 mps 652 mmHg 84%
    09:00 +7°C° 0 mm 0 mps 653 mmHg 74%
    10:00 +9°C° 0 mm 0 mps 653 mmHg 65%
    11:00 +11°C° 0 mm 1 mps 653 mmHg 62%
    12:00 +12°C° 0 mm 1 mps 653 mmHg 59%
    13:00 +13°C° 0 mm 1 mps 653 mmHg 57%
    14:00 +12°C° 0 mm 1 mps 653 mmHg 59%
    15:00 +12°C° 0 mm 1 mps 653 mmHg 60%
    16:00 +12°C° 0 mm 1 mps 653 mmHg 62%
    17:00 +9°C° 0 mm 1 mps 652 mmHg 72%
    18:00 +6°C° 0 mm 1 mps 651 mmHg 83%
    19:00 +3°C° 0 mm 1 mps 650 mmHg 93%
    20:00 +3°C° 0 mm 1 mps 651 mmHg 93%
    21:00 +3°C° 0 mm 1 mps 651 mmHg 94%
    22:00 +3°C° 0 mm 1 mps 651 mmHg 94%
    23:00 +3°C° 0 mm 1 mps 651 mmHg 94%

    30 March, Thursday

    Time Temperature Precipitation Wind Pressure Humidity
    00:00 +2°C° 0 mm 1 mps 651 mmHg 94%
    01:00 +2°C° 0 mm 1 mps 651 mmHg 94%
    02:00 +2°C° 0 mm 1 mps 651 mmHg 93%
    03:00 +2°C° 0 mm 1 mps 651 mmHg 92%
    04:00 +1°C° 0 mm 1 mps 650 mmHg 92%
    05:00 +2°C° 0 mm 1 mps 650 mmHg 89%
    06:00 +2°C° 0 mm 1 mps 651 mmHg 86%
    07:00 +3°C° 0 mm 1 mps 651 mmHg 83%
    08:00 +6°C° 0 mm 1 mps 652 mmHg 74%
    09:00 +9°C° 0 mm 1 mps 652 mmHg 65%
    10:00 +12°C° 0 mm 1 mps 653 mmHg 56%
    11:00 +13°C° 0 mm 1 mps 653 mmHg 54%
    12:00 +14°C° 0 mm 1 mps 653 mmHg 52%
    13:00 +15°C° 0 mm 1 mps 653 mmHg 50%
    14:00 +15°C° 0 mm 1 mps 653 mmHg 52%
    15:00 +14°C° 0 mm 1 mps 652 mmHg 55%
    16:00 +14°C° 0 mm 1 mps 652 mmHg 57%
    17:00 +11°C° 0 mm 1 mps 651 mmHg 69%
    18:00 +8°C° 0 mm 1 mps 650 mmHg 80%
    19:00 +3°C° 0 mm 0 mps 649 mmHg 92%
    20:00 +4°C° 0 mm 1 mps 649 mmHg 91%
    21:00 +4°C° 0 mm 1 mps 650 mmHg 91%
    22:00 +4°C° 0 mm 1 mps 650 mmHg 90%
    23:00 +4°C° 0 mm 1 mps 650 mmHg 90%

    31 March, Friday

    Time Temperature Precipitation Wind Pressure Humidity
    00:00 +3°C° 0 mm 2 mps 649 mmHg 89%
    01:00 +2°C° 0 mm 2 mps 649 mmHg 89%
    02:00 +2°C° 0 mm 2 mps 649 mmHg 88%
    03:00 +2°C° 0 mm 2 mps 648 mmHg 88%
    04:00 +2°C° 0 mm 2 mps 648 mmHg 87%
    05:00 +2°C° 0 mm 2 mps 648 mmHg 85%
    06:00 +2°C° 0 mm 2 mps 648 mmHg 83%
    07:00 +3°C° 0 mm 2 mps 648 mmHg 81%
    08:00 +5°C° 0 mm 2 mps 648 mmHg 71%
    09:00 +8°C° 0 mm 2 mps 648 mmHg 62%
    10:00 +12°C° 0 mm 2 mps 649 mmHg 52%
    11:00 +13°C° 0 mm 2 mps 649 mmHg 49%
    12:00 +14°C° 0 mm 2 mps 648 mmHg 45%
    13:00 +15°C° 0 mm 2 mps 648 mmHg 42%
    14:00 +15°C° 0 mm 2 mps 648 mmHg 43%
    15:00 +15°C° 0 mm 2 mps 647 mmHg 45%
    16:00 +15°C° 0 mm 2 mps 647 mmHg 47%
    17:00 +12°C° 0 mm 2 mps 646 mmHg 58%
    18:00 +8°C° 0 mm 2 mps 645 mmHg 70%
    19:00 +5°C° 0 mm 2 mps 644 mmHg 81%
    20:00 +5°C° 0.2 mm 2 mps 644 mmHg 83%
    21:00 +4°C° 0.2 mm 2 mps 645 mmHg 84%
    22:00 +4°C° 0.2 mm 2 mps 645 mmHg 86%
    23:00 +4°C° 0 mm 2 mps 644 mmHg 86%

    1 April, Saturday

    Time Temperature Precipitation Wind Pressure Humidity
    00:00 +3°C° 0 mm 2 mps 644 mmHg 86%
    01:00 +4°C° 0 mm 1 mps 644 mmHg 85%
    02:00 +4°C° 0 mm 1 mps 644 mmHg 87%
    03:00 +3°C° 0 mm 1 mps 643 mmHg 88%
    04:00 +3°C° 0 mm 1 mps 643 mmHg 90%
    05:00 +3°C° 0 mm 1 mps 643 mmHg 89%
    06:00 +4°C° 0 mm 1 mps 643 mmHg 89%
    07:00 +4°C° 0 mm 1 mps 643 mmHg 88%
    08:00 +5°C° 0 mm 1 mps 643 mmHg 81%
    09:00 +7°C° 0 mm 1 mps 643 mmHg 75%
    10:00 +8°C° 0 mm 1 mps 643 mmHg 69%
    11:00 +8°C° 0.2 mm 1 mps 643 mmHg 68%
    12:00 +9°C° 0.2 mm 1 mps 643 mmHg 67%
    13:00 +8°C° 0.2 mm 2 mps 643 mmHg 66%
    14:00 +9°C° 0.4 mm 1 mps 642 mmHg 68%
    15:00 +8°C° 0.4 mm 1 mps 642 mmHg 70%
    16:00 +8°C° 0.4 mm 1 mps 642 mmHg 72%
    17:00 +6°C° 0.3 mm 1 mps 641 mmHg 79%
    18:00 +4°C° 0.3 mm 1 mps 641 mmHg 87%
    19:00 +1°C° 0.3 mm 0 mps 640 mmHg 95%
    20:00 +2°C° 0 mm 1 mps 640 mmHg 95%
    21:00 +1°C° 0 mm 1 mps 640 mmHg 95%
    22:00 +1°C° 0 mm 1 mps 641 mmHg 94%
    23:00 +1°C° 0.1 mm 1 mps 640 mmHg 93%
    Show more